星链-11345 (STARLINK-11345)

导读

STARLINK-11345是美国SpaceX公司星链(Starlink)互联网卫星星座的一员,于2024年11月25日发射入轨。作为全球最大低轨卫星互联网项目,星链旨在为全球偏远地区提供低延迟、高速宽带互联网服务,该卫星将参与构建覆盖全球的卫星通信网络,目前星链已在全球60多个国家和地区落地商用,持续拓展全球卫星互联网的覆盖规模与服务能力。

基本信息
目录编号:
62093
目录名称:
STARLINK-11345
国际标识:
2024-220F
轨道中心:
EARTH
卫星名称:
星链-11345
卫星全名:
星链-11345 (STARLINK-11345)
卫星状态:
在轨 (已飞行655 天)
发射日期:
2024-11-25 UTC
国别 :
美国 (US)
星等 :
--
该卫星已列入 空间交会检测服务 Space Conjunction Data Service (SCDS) ,当前飞行风险评估等级: 无高风险
轨道信息
数据来源 国际轨道数据
星历时间: 2026-09-11T15:00:51+0800
5小时前
查看轨道信息
半长轴: 6734.315km
偏心率: 0.0004669
轨道倾角: 43.001°
近地点辐角 284.123°
升交点赤经 4.324°
平近点角 75.912°
近地点: 353.033km
远地点: 359.323km
周期: 91.664分钟
每日圈数: 15.709512
详细信息
固有亮度:
5
最大亮度:
2.5
卫星平台:
Starlink V1.0
覆盖范围:
全球
运营商:
太空探索技术公司
运营商所在国:
美国
制造商(研发单位):
太空探索技术公司
制造商所在国:
美国
使用方式:
暂无
卫星简介
Starlink 计划是 SpaceX 推出的全球卫星互联网项目,通过发射低轨道卫星,为全球尤其是偏远地区提供高速、低延迟的互联网服务。自 2019 年起,Starlink 已部署数千颗卫星,旨在缩小全球数字鸿沟,推动互联网普及。该项目还为军事、航空等行业提供通信支持,带来广泛经济效益。
2D轨道图
3D轨道图
轨道高度分析图
轨道倾角分析图
轨道综合分析图
查看轨道综合分析图
交会数据列表
事件ID 空间交会对象 最接近时刻(TCA) 交会距离 交会风险概率(CRP) 交会风险指数(CRI) 操作
CDM_260912-204006-209306-291821
2026-09-12T
20:40:52+0000
2.450 km
极远距离
9.578013E-7 极低风险 0.35
与全量物体交会距离演化趋势
与全量物体交会风险概率演化趋势